Date String (YYYY-MM-DD hh:mm:ss) UTC,Instrument flags,Ambient pressure (hPa),Sample flow (lpm),Bypass flow (lpm),Sample temperature (°C),Ambient temperature (°C),ASC tube jacket temperature (°C),LED temperature (°C),Box temperature (°C),Sample RH (%),Span deviation,Mass concentration (μg/m³),Mass concentration (μg/m³),Mass concentration (μg/m³)
DateTimeUTC,F1_M11,P_M11,Q1_M11,Q2_M11,T1_M11,T2_M11,T3_M11,T4_M11,T5_M11,U1_M11,ZSPAN_M11,X0_M11,X2_M11,X1_M11
2022-02-03 01:00:00,,0828.2,4.99,0.00,22.3,22.7,00.0,31.2,24.1,05.0,0000.0,0007.99,0004.68,0004.29
2022-02-03 01:01:00,,0828.3,5.00,0.00,22.4,22.8,00.0,31.3,24.3,05.0,0000.0,0007.95,0004.69,0004.29
2022-02-03 01:02:00,,0828.1,5.00,0.00,22.4,22.4,00.0,31.3,24.2,05.0,0000.0,0007.92,0004.67,0004.30
2022-02-03 01:03:00,,0828.2,5.00,0.00,22.3,21.9,00.0,31.3,24.1,05.0,0000.0,0007.88,0004.67,0004.30
2022-02-03 01:04:00,,0828.3,5.00,0.00,22.3,21.6,00.0,31.2,23.9,05.0,0000.0,0007.70,0004.64,0004.29
2022-02-03 01:05:00,,0828.2,5.01,0.00,22.2,21.3,00.0,31.2,23.8,05.0,0000.0,0007.63,0004.62,0004.29
2022-02-03 01:06:00,,0828.2,5.00,0.00,22.2,21.1,00.0,31.2,23.7,05.1,0000.0,0007.64,0004.64,0004.31
2022-02-03 01:07:00,,0828.2,5.00,0.00,22.1,20.9,00.0,31.2,23.6,05.1,0000.0,0007.46,0004.63,0004.31
2022-02-03 01:08:00,,0828.2,5.01,0.00,22.0,20.7,00.0,31.2,23.5,05.1,0000.0,0007.41,0004.61,0004.31
2022-02-03 01:09:00,,0828.3,5.01,0.00,22.0,21.3,00.0,31.1,23.6,05.1,0000.0,0007.45,0004.61,0004.32
2022-02-03 01:10:00,,0828.3,5.00,0.00,22.2,22.2,00.0,31.2,23.9,05.1,0000.0,0007.79,0004.62,0004.33
2022-02-03 01:11:00,,0828.3,4.99,0.00,22.3,23.0,00.0,31.2,24.2,05.0,0000.0,0007.69,0004.63,0004.33
2022-02-03 01:12:00,,0828.3,5.01,0.00,22.4,23.1,00.0,31.3,24.3,05.0,0000.0,0007.51,0004.62,0004.33
2022-02-03 01:13:00,,0828.3,5.00,0.00,22.4,22.7,00.0,31.3,24.3,04.9,0000.0,0007.51,0004.61,0004.31
2022-02-03 01:14:00,,0828.3,4.99,0.00,22.4,22.2,00.0,31.3,24.2,04.9,0000.0,0007.43,0004.59,0004.29
2022-02-03 01:15:00,,0828.3,5.02,0.00,22.3,21.8,00.0,31.3,24.0,05.0,0000.0,0007.46,0004.59,0004.28
2022-02-03 01:16:00,,0828.3,4.99,0.00,22.3,21.4,00.0,31.2,23.9,05.0,0000.0,0007.63,0004.60,0004.27
2022-02-03 01:17:00,,0828.3,4.99,0.00,22.2,21.1,00.0,31.2,23.8,05.0,0000.0,0007.65,0004.59,0004.26
2022-02-03 01:18:00,,0828.3,5.00,0.00,22.1,20.9,00.0,31.2,23.6,05.0,0000.0,0007.67,0004.58,0004.24
2022-02-03 01:19:00,,0828.3,5.00,0.00,22.1,20.7,00.0,31.2,23.6,05.0,0000.0,0007.56,0004.53,0004.22
2022-02-03 01:20:00,,0828.3,5.00,0.00,22.0,21.1,00.0,31.2,23.6,05.0,0000.0,0007.28,0004.50,0004.21
2022-02-03 01:21:00,,0828.3,5.00,0.00,22.2,22.0,00.0,31.2,23.9,05.0,0000.0,0006.76,0004.48,0004.20
2022-02-03 01:22:00,,0828.4,4.99,0.00,22.3,22.8,00.0,31.2,24.1,05.0,0000.0,0006.65,0004.46,0004.19
2022-02-03 01:23:00,,0828.3,5.00,0.00,22.4,22.7,00.0,31.3,24.2,04.9,0000.0,0006.67,0004.46,0004.18
2022-02-03 01:24:00,,0828.3,5.00,0.00,22.4,22.3,00.0,31.3,24.2,04.9,0000.0,0006.82,0004.48,0004.20
2022-02-03 01:25:00,,0828.5,5.00,0.00,22.3,21.9,00.0,31.3,24.0,04.9,0000.0,0006.93,0004.51,0004.21
2022-02-03 01:26:00,,0828.3,5.00,0.00,22.3,21.5,00.0,31.2,23.9,04.9,0000.0,0006.94,0004.53,0004.21
2022-02-03 01:27:00,,0828.4,5.01,0.00,22.2,21.3,00.0,31.2,23.8,04.9,0000.0,0006.75,0004.54,0004.22
2022-02-03 01:28:00,,0828.4,4.99,0.00,22.2,21.1,00.0,31.2,23.7,05.0,0000.0,0006.70,0004.52,0004.22
2022-02-03 01:29:00,,0828.3,5.01,0.00,22.1,21.0,00.0,31.2,23.7,05.0,0000.0,0006.70,0004.53,0004.22
2022-02-03 01:30:00,,0828.3,4.99,0.00,22.1,20.9,00.0,31.2,23.6,05.0,0000.0,0006.71,0004.53,0004.22
2022-02-03 01:31:00,,0828.4,5.01,0.00,22.1,21.1,00.0,31.1,23.6,05.0,0000.0,0006.75,0004.53,0004.21
2022-02-03 01:32:00,,0828.4,5.00,0.00,22.1,22.0,00.0,31.2,23.8,05.0,0000.0,0006.72,0004.52,0004.20
2022-02-03 01:33:00,,0828.4,4.99,0.00,22.2,22.7,00.0,31.2,24.1,04.9,0000.0,0006.70,0004.51,0004.19
2022-02-03 01:34:00,,0828.4,5.00,0.00,22.4,22.9,00.0,31.2,24.2,04.9,0000.0,0006.83,0004.51,0004.19
2022-02-03 01:35:00,,0828.4,4.99,0.00,22.4,22.6,00.0,31.2,24.2,04.9,0000.0,0006.68,0004.48,0004.17
2022-02-03 01:36:00,,0828.4,4.99,0.00,22.4,22.2,00.0,31.2,24.1,04.9,0000.0,0006.54,0004.43,0004.14
2022-02-03 01:37:00,,0828.4,5.00,0.00,22.3,21.9,00.0,31.2,24.1,04.9,0000.0,0006.39,0004.39,0004.13
2022-02-03 01:38:00,,0828.4,5.01,0.00,22.3,21.7,00.0,31.2,24.0,04.9,0000.0,0006.23,0004.34,0004.10
2022-02-03 01:39:00,,0828.3,5.01,0.00,22.3,21.4,00.0,31.2,23.9,04.9,0000.0,0006.23,0004.32,0004.08
2022-02-03 01:40:00,,0828.3,5.00,0.00,22.2,21.4,00.0,31.2,23.9,04.9,0000.0,0006.14,0004.31,0004.08
2022-02-03 01:41:00,,0828.3,4.98,0.00,22.2,21.2,00.0,31.2,23.8,04.9,0000.0,0006.21,0004.29,0004.07
2022-02-03 01:42:00,,0828.3,5.02,0.00,22.2,21.1,00.0,31.2,23.8,04.9,0000.0,0006.17,0004.27,0004.05
2022-02-03 01:43:00,,0828.4,5.00,0.00,22.2,21.5,00.0,31.2,23.8,04.9,0000.0,0006.18,0004.28,0004.05
2022-02-03 01:44:00,,0828.4,5.00,0.00,22.3,22.3,00.0,31.2,24.0,04.9,0000.0,0006.18,0004.28,0004.04
2022-02-03 01:45:00,,0828.5,5.00,0.00,22.4,23.0,00.0,31.3,24.3,04.8,0000.0,0006.04,0004.27,0004.02
2022-02-03 01:46:00,,0828.4,5.00,0.00,22.5,22.9,00.0,31.3,24.3,04.8,0000.0,0006.06,0004.27,0004.02
2022-02-03 01:47:00,,0828.4,5.00,0.00,22.5,22.6,00.0,31.3,24.3,04.8,0000.0,0006.17,0004.30,0004.03
2022-02-03 01:48:00,,0828.3,5.00,0.00,22.5,22.3,00.0,31.3,24.2,04.8,0000.0,0006.37,0004.34,0004.04
2022-02-03 01:49:00,,0828.3,5.00,0.00,22.4,22.0,00.0,31.3,24.1,04.8,0000.0,0006.49,0004.37,0004.05
2022-02-03 01:50:00,,0828.3,5.00,0.00,22.4,21.8,00.0,31.3,24.0,04.8,0000.0,0006.52,0004.39,0004.06
2022-02-03 01:51:00,,0828.3,4.99,0.00,22.3,21.5,00.0,31.3,24.0,04.8,0000.0,0006.39,0004.37,0004.05
2022-02-03 01:52:00,,0828.3,5.02,0.00,22.3,21.4,00.0,31.3,23.9,04.8,0000.0,0006.28,0004.37,0004.05
2022-02-03 01:53:00,,0828.3,4.98,0.00,22.2,21.2,00.0,31.3,23.8,04.8,0000.0,0007.10,0004.40,0004.05
2022-02-03 01:54:00,,0828.4,5.00,0.00,22.2,21.2,00.0,31.2,23.8,04.8,0000.0,0007.70,0004.41,0004.05
2022-02-03 01:55:00,,0828.3,5.00,0.00,22.2,21.7,00.0,31.3,23.9,04.8,0000.0,0007.72,0004.42,0004.06
2022-02-03 01:56:00,,0828.4,5.00,0.00,22.4,22.5,00.0,31.3,24.1,04.8,0000.0,0007.78,0004.42,0004.06
2022-02-03 01:57:00,,0828.3,5.00,0.00,22.5,23.0,00.0,31.3,24.4,04.8,0000.0,0007.77,0004.42,0004.07
2022-02-03 01:58:00,,0828.3,5.00,0.00,22.5,22.8,00.0,31.3,24.4,04.7,0000.0,0007.73,0004.40,0004.07
2022-02-03 01:59:00,,0828.3,4.99,0.00,22.5,22.5,00.0,31.4,24.3,04.7,0000.0,0007.61,0004.36,0004.06
